Weather Roundup
Issued by NWS Springfield, MO

Home | Current Version | Previous Version | Text Only | Print | Product List | Glossary On
Versions: 1 2 3 4 5 6 7 8 9 10 11 12 13 14 15 16 17 18 19 20 21 22 23 24 25 26 27 28 29 30 31 32 33 34 35 36 37 38 39 40 41 42 43 44 45 46 47 48 49 50
000
NZUS99 KSGF 060607
HRRSGF

HOURLY WEATHER
NATIONAL WEATHER SERVICE SPRINGFIELD MO
100 AM CDT WED MAY 06 2015

......SGF CWA......

CITY           SKY/WX    TMP DP  RH WIND       PRES   REMARKS
SPRINGFIELD    PTCLDY    68  52  56 SE14      30.07S
6HR MIN TEMP:  68; 6HR MAX TEMP:  78;

JOPLIN         CLOUDY    70  54  56 SE10G20   30.02F
6HR MIN TEMP:  69; 6HR MAX TEMP:  76;

WEST PLAINS    CLEAR     64  50  60 SE5       30.14S
6HR MIN TEMP:  62; 6HR MAX TEMP:  77;

ROLLA          CLEAR     64  55  72 SE8       30.11S
6HR MIN TEMP:  64; 6HR MAX TEMP:  77;

OSAGE BEACH    PTCLDY    66  54  63 SE3       30.08F
BRANSON        PTCLDY    66  54  63 SE8       30.10S

......SURROUNDING SGF CWA......

CITY           SKY/WX    TMP DP  RH WIND       PRES   REMARKS
CHANUTE        CLOUDY    68  60  75 SE9       29.98F
PARSONS        LGT RAIN  66  63  90 S3        29.99F
COFFEYVILLE    LGT RAIN  65  62  90 SE5       29.97F
EMPORIA        LGT RAIN  64  63  96 SE9       29.96F
GROVE OK       CLOUDY    70  55  60 E5        30.02F
ROGERS AR      CLOUDY    68  54  60 SE8       30.06S
SILOAM SPRINGS MOCLDY    68  52  56 SE9       30.04F
HARRISON AR    PTCLDY    65  54  67 SE7       30.09F
NEAR YELLVILLE PTCLDY    66  52  59 E5        30.09S

......KANSAS AND MISSOURI......

CITY           SKY/WX    TMP DP  RH WIND       PRES   REMARKS
KANSAS CTY INT CLOUDY    65  61  87 SE9       30.01F
DOWNTOWN KC    MOCLDY    71  59  65 SE9       30.00F
COLUMBIA       PTCLDY    66  59  78 E7        30.10F
SEDALIA        CLOUDY    67  56  67 SE8       30.07F
ST JOSEPH      CLOUDY    66  62  87 SE10      30.00F
ST LOUIS       PTCLDY    74  56  53 S7        30.14S
SPIRIT OF STL  PTCLDY    68  57  68 CALM      30.12S
KIRKSVILLE     PTCLDY    65  59  81 S9        30.09F
WICHITA        HVY RAIN  64  62  93 SE7       29.89S FOG
TOPEKA         CLOUDY    65  63  93 E6        29.99F
OLATHE         MOCLDY    66  61  84 SE8       30.00F

......TENNESSEE......

CITY           SKY/WX    TMP DP  RH WIND       PRES   REMARKS
MEMPHIS        CLEAR     71  54  54 SE5       30.15F
NASHVILLE      MOCLDY    67  56  67 S3        30.21S

......ARKANSAS.......

CITY           SKY/WX    TMP DP  RH WIND       PRES   REMARKS
FAYETTEVILLE   CLOUDY    72  56  57 SE15G23   30.04F
FT SMITH       CLOUDY    73  53  49 E7        30.02S
LITTLE ROCK    PTCLDY    68  55  63 SE3       30.10S

......OKLAHOMA.......

CITY           SKY/WX    TMP DP  RH WIND       PRES   REMARKS
TULSA          LGT RAIN  68  63  84 SE13      29.94F
PONCA CITY     LGT RAIN  66  64  93 SE22G28   29.88F
MCALESTER      CLOUDY    70  63  78 SE9G18    29.99R
OKLAHOMA CITY  TSTM      61  57  88 SW13G25   29.94R FOG

......IOWA............

CITY           SKY/WX    TMP DP  RH WIND       PRES   REMARKS
DES MOINES     CLOUDY    67  63  87 E9        30.05F FOG
QUAD CITIES    CLOUDY    58  54  86 E12       30.15F FOG

......ILLINOIS........

CITY           SKY/WX    TMP DP  RH WIND       PRES   REMARKS
QUINCY         MOCLDY    70  56  61 S7        30.11S
CHICAGO        CLOUDY    47  46  97 NE7       30.21S FOG



USA.gov is the U.S. government's official web portal to all federal, state and local government web resources and services.